Location: Tierra del Sol
(32.6128°N, 116.3319°W)
Time: 04:37:44
(UTC-07:00)

Tiangong 1 - Pass Details

Date: 11 October 2017
Orbit: 294 x 321 km, 42.8° (Epoch: 17 October)

Event Time Altitude Azimuth Distance (km) Brightness Sun altitude
Rises 19:34:53 0° 310° (NW) 2,035 5.6 -17.2°
Reaches altitude 10° 19:37:50 10° 346° (NNW) 1,197 3.7 -17.9°
Enters shadow 19:38:29 11° 0° (N) 1,120 3.4 -18.0°
